STARLINK-34232, 65019

Orbit data source: Space-Track

STARLINK-34232, 65019 is a payload satellite owned by SpaceX/Seattle (US) in LEO that was launched on Wed, 30 Jul 2025 UTC via an FALCON 9 launch vehicle from the Air Force Eastern Test Range (AFETR). Payload-class satellites include a variety of spacecraft equipped with specific instruments for various scientific and technological missions. These include communications satellites like Starlink; space stations such as the ISS; scientific satellites like the Hubble; Earth observation satellites from companies like Planet Labs, Umbra, and HawkEye 360; GPS; miniature CubeSats for education and research; and military/defense satellites.

Loading next visibility...
Identifier
65019, 2025-161E
Orbit
LEO
Country
Flag of USUS
Related business
Manufacturer
SpaceX/Seattle
Mission
Operational Commercial Communications
Bus & Motor
STARLINK V2MO, Unknown motor
Mass
575 kg wet, ~530 kg dry
Launch date (UTC)
2025-07-30 (11 months ago)
Launch vehicle
FALCON 9
Launch site
Air Force Eastern Test Range (AFETR)
Object type
Payload
Rocket body
Debris
Shape & HBR
Box + 2 Pan, 17.7 m
Radar Cross Section
36.964 m², Large (>1 m²)

Expand to show TLE details & history
Last TLE update: 11 hours ago

TLE from 11 hours ago
0 STARLINK-34232
1 65019U 25161E   26171.40466514  .00004556  00000-0  16591-3 0  9998
2 65019  53.1593 177.2687 0001348  81.4988 278.6165 15.30187240 51160
Epoch: 2026-06-20T09:42Z
TLE epoch observation values (Epoch: 2026-06-20T09:42:43.068Z)
Latitude
-0.00004°
Longitude
122.96945°
Altitude
476.015 km
Speed
7.629 km/s
True Right ascension
11h 49m 04s
True Declination
0° 00' 00"
Sunlit
Object was in daylight at epoch
Visualization orbit readout
Latitude
Unknown
Longitude
Unknown
Altitude
Unknown
Speed
Unknown
Apparent Right ascension
Unknown
Apparent Declination
Unknown
Sunlit
N/A
Visualization observer readout
Local Sidereal Time
07:19:23
Azimuth
Unknown
Elevation
Unknown
Doppler factor
Unknown
Orbital elements
Apogee altitude
476.434 km
Perigee altitude
474.586 km
Semi-major axis
6,853.647 km
Eccentricity
0.00013
Inclination
53.1593°
RAAN
177.2687°
Arg. of periapsis
81.4988°
True anomaly
278.60123°
Mean anomaly
278.6165°
Eccentric anomaly
278.60886°
Mean motion
3.82526 °/min
Orbital period
94.11 mins
BSTAR
0.00016591
Loading maneuver chart data...
Computing Atmospheric mass density...
Loading historical data...
Loading historical data...
Loading historical data...
Loading historical data...
Loading historical data...
Loading historical data...
Loading historical data...

Documentation

Showing up to 5 results
|